This is the latest recevied weather packets stored in our database for station/object EA3BNF-1. If no packets are shown the sender has not sent any weather packets the latest 10 day(s).
| Time | Temp. | Humidity | Pressure | Rain* | Wind** | Luminosity | Snow |
|---|---|---|---|---|---|---|---|
| 1778231027 | 20.56° C | 59% | 1014.3 hPa | - | - | - | - |
| 1778230371 | 20° C | 57% | 1014.4 hPa | - | - | - | - |
| 1778229716 | 20° C | 58% | 1014.4 hPa | - | - | - | - |
| 1778229060 | 20° C | 57% | 1014.4 hPa | - | - | - | - |
| 1778228404 | 20° C | 57% | 1014.3 hPa | - | - | - | - |
| 1778227749 | 20° C | 57% | 1014.1 hPa | - | - | - | - |
| 1778227093 | 20° C | 57% | 1014 hPa | - | - | - | - |
| 1778226437 | 19.44° C | 58% | 1013.8 hPa | - | - | - | - |
| 1778225782 | 18.89° C | 58% | 1013.6 hPa | - | - | - | - |
| 1778225126 | 18.89° C | 59% | 1013.5 hPa | - | - | - | - |
| 1778224470 | 18.33° C | 60% | 1013.4 hPa | - | - | - | - |
| 1778223815 | 17.78° C | 59% | 1013.4 hPa | - | - | - | - |
| 1778223159 | 16.67° C | 61% | 1013.2 hPa | - | - | - | - |
| 1778222504 | 16.11° C | 62% | 1013.1 hPa | - | - | - | - |
| 1778221848 | 15.56° C | 63% | 1013 hPa | - | - | - | - |
| 1778221192 | 15° C | 64% | 1012.8 hPa | - | - | - | - |
| 1778220537 | 15° C | 64% | 1012.7 hPa | - | - | - | - |
| 1778219881 | 15° C | 63% | 1012.7 hPa | - | - | - | - |
| 1778219225 | 15° C | 64% | 1012.8 hPa | - | - | - | - |
| 1778218570 | 14.44° C | 63% | 1012.7 hPa | - | - | - | - |
| 1778217916 | 14.44° C | 63% | 1012.7 hPa | - | - | - | - |
| 1778217258 | 14.44° C | 64% | 1012.7 hPa | - | - | - | - |
| 1778216603 | 14.44° C | 65% | 1012.8 hPa | - | - | - | - |
| 1778215947 | 13.89° C | 67% | 1012.8 hPa | - | - | - | - |
| 1778215291 | 13.89° C | 68% | 1012.8 hPa | - | - | - | - |
* Rain since midnight (hover to see other rain measurements)
** Current wind speed in m/s (hover to see current wind gust speed)